[Iaude] MPEC S111: 2017 SS10 [a=0.85,e=0.33,i=18.7,H=25.4]

mpec at mpcdb1.cfa.harvard.edu mpec at mpcdb1.cfa.harvard.edu
Fri Sep 22 22:23:16 EDT 2017


M.P.E.C. 2017-S111                               Issued 2017 Sept. 23, 02:19 UT
 
     The Minor Planet Electronic Circulars contain information on unusual
         minor planets and routine data on comets.  They are published
    on behalf of Division F of the International Astronomical Union by the
          Minor Planet Center, Smithsonian Astrophysical Observatory,
                          Cambridge, MA 02138, U.S.A.

             Prepared using the Tamkin Foundation Computer Network

                              MPC at CFA.HARVARD.EDU
            URL http://www.minorplanetcenter.net/    ISSN 1523-6714


                                   2017 SS10
 
Observations:
     K17S10S* C2017 09 21.51612 00 37 59.692+24 26 02.65         20.5 wLES111F51
     K17S10S  C2017 09 21.52891 00 37 55.585+24 22 34.14         20.2 wLES111F51
     K17S10S  C2017 09 21.55458 00 37 47.450+24 15 33.31         19.7 wLES111F51
     K17S10S KC2017 09 21.86945 00 36 41.89 +22 45 13.5          19.6 RqES111A17
     K17S10S KC2017 09 21.87271 00 36 40.90 +22 44 16.2          19.7 RqES111A17
     K17S10S KC2017 09 21.87597 00 36 39.94 +22 43 19.8          19.3 RqES111A17
     K17S10S KC2017 09 21.88536 00 36 37.10 +22 40 35.3          19.3 RqES111A17
     K17S10S KC2017 09 21.93990 00 36 21.33 +22 24 25.1                UES111J95
     K17S10S KC2017 09 21.94865 00 36 18.58 +22 21 48.7                UES111J95
     K17S10S KC2017 09 21.95829 00 36 15.57 +22 18 57.2                UES111J95
     K17S10S KC2017 09 21.96593 00 36 13.15 +22 16 39.9          19.6 GUES111J95
     K17S10S  C2017 09 22.24549 00 34 59.83 +20 50 27.9          19.8 VqES111I52
     K17S10S  C2017 09 22.24645 00 34 59.49 +20 50 09.5          19.8 VqES111I52
     K17S10S  C2017 09 22.24843 00 34 58.79 +20 49 31.3          20.1 VqES111I52
     K17S10S KC2017 09 22.82686 00 32 10.87 +17 26 22.7          18.5 RqES111104
     K17S10S KC2017 09 22.83034 00 32 09.66 +17 25 04.3          18.4 RqES111104
     K17S10S KC2017 09 22.83815 00 32 06.91 +17 22 09.7                qES111104
     K17S10S KC2017 09 22.88478 00 31 49.91 +17 04 34.5          18.7 RqES111160
     K17S10S KC2017 09 22.88754 00 31 48.85 +17 03 31.8          19.0 RqES111160
     K17S10S KC2017 09 22.88772 00 31 47.64 +17 03 05.6          19.1 RqES111113
     K17S10S KC2017 09 22.88894 00 31 48.35 +17 02 59.9          19.1 RqES111160
     K17S10S KC2017 09 22.89031 00 31 47.80 +17 02 28.5          18.7 RqES111160
     K17S10S KC2017 09 22.89239 00 31 45.92 +17 01 19.0          19.0 RqES111113
     K17S10S KC2017 09 22.89309 00 31 46.75 +17 01 25.0          19.1 RqES111160
     K17S10S KC2017 09 22.89706 00 31 44.18 +16 59 32.1          18.3 RqES111113
     K17S10S KC2017 09 22.90174 00 31 42.48 +16 57 44.8          19.1 RqES111113
     K17S10S KC2017 09 22.92081800 31 36.62 +16 50 39.8          19.4  UES111B04
     K17S10S KC2017 09 22.92464300 31 35.15 +16 49 12.1          19.2  UES111B04
     K17S10S KC2017 09 22.92763200 31 34.03 +16 48 02.8          18.9  UES111B04
     K17S10S KC2017 09 22.93089200 31 32.77 +16 46 47.2          18.8  UES111B04
     K17S10S KC2017 09 22.99938 00 31 04.89 +16 20 01.6          19.2 VqES111595
     K17S10S KC2017 09 23.00416 00 31 02.98 +16 18 07.9                qES111595
     K17S10S KC2017 09 23.00958 00 31 00.81 +16 15 59.3          19.2 VqES111595
 
Observer details:
104 San Marcello Pistoiese.  Observers P. Bacci, M. Maestripieri.  Measurers
    P. Bacci, L. Tesi, G. Fagioli.  0.60-m f/4 reflector + CCD.
113 Volkssternwarte Drebach, Schoenbrunn.  Observers G. Lehmann, K. Lehmann.
    0.5-m f/4.6 reflector + CCD.
160 Castelmartini.  Observers M. Jaeger, E. Prosperi, S. Prosperi, W. Vollmann.
    Measurer E. Prosperi.  0.35-m f/10 Schmidt-Cassegrain + CCD.
595 Farra d'Isonzo.  Observer E. Pettarin.  0.61-m f/4.0 reflector + CCD.
A17 Guidestar Observatory, Weinheim.  Observers M. Emmerich, S. Melchert.
    0.36-m f/6 Schmidt-Cassegrain + CCD.
B04 OAVdA, Saint-Barthelemy.  Observers A. Carbognani, L. Buzzi, M. Collotti,
    M. Wolter.  0.81-m f/4.7 reflector + CCD.
F51 Pan-STARRS 1, Haleakala.  Observers J. Bulger, T. Lowe, A. Schultz,
    M. Willman.  Measurers K. Chambers, S. Chastel, L. Denneau, H. Flewelling,
    M. Huber, E. Lilly, E. Magnier, R. Wainscoat, C. Waters, R. Weryk.  1.8-m
    Ritchey-Chretien + CCD.
I52 Steward Observatory, Mt. Lemmon Station.  Observer G. J. Leonard.
    Measurers E. J. Christensen, D. C. Fuls, A. R. Gibbs, A. D. Grauer,
    J. A. Johnson, R. A. Kowalski, S. M. Larson, G. J. Leonard, R. G. Matheny,
    R. L. Seaman, F. C. Shelly.  1.0-m reflector + CCD.
J95 Great Shefford.  Observer P. Birtwhistle.  0.40-m f/6.0 Schmidt-Cassegrain
    + CCD.
 
Orbital elements:
2017 SS10                                                Earth MOID = 0.0240 AU
Epoch 2017 Sept. 4.0 TT = JDT 2458000.5                 MPC
M 217.80782              (2000.0)            P               Q
n   1.25090269     Peri.  323.60245     -0.82130903     -0.57040393
a   0.8530746      Node   181.70701     +0.56909227     -0.81802576
e   0.3259130      Incl.   18.65852     +0.03981775     -0.07398118
P   0.79           H   25.4           G   0.15           U   7
Residuals in seconds of arc
170921 F51  0.1-  0.0     170922 I52  0.2-  0.1-    170922 113  0.2-  0.6-
170921 F51  0.1-  0.2-    170922 I52  0.3-  0.0     170922 160  0.3-  0.1-
170921 F51  0.0   0.2+    170922 I52  0.5-  0.2-    170922 113  0.3-  0.5-
170921 A17  0.3-  0.5+    170922 104  0.1-  0.6+    170922 113  0.3+  0.4-
170921 A17  0.4-  0.1-    170922 104  0.1+  0.1+    170922 B04  0.1-  0.2-
170921 A17  0.1-  0.2+    170922 104  0.2+  0.6+    170922 B04  0.3-  0.4+
170921 A17  0.1+  0.6-    170922 160  0.3+  0.4-    170922 B04  0.1+  0.2+
170921 J95  0.0   0.4+    170922 160  0.1-  0.1-    170922 B04  0.1-  0.1+
170921 J95  0.1-  0.3-    170922 113  0.4-  0.8-    170922 595  0.5+  0.3+
170921 J95  0.3+  0.3+    170922 160  0.3+  0.0     170923 595  0.2+  0.2+
170921 J95  0.4+  0.3-    170922 160  0.2-  0.1-    170923 595  0.3-  0.6+

Ephemeris:
2017 SS10                a,e,i = 0.85, 0.33, 19                  q = 0.5750
Date    TT    R. A. (2000) Decl.     Delta      r     Elong.  Phase     V
2017 08 24    00 57 05.2 +46 58 51   0.2346  1.1172   111.1    57.6    24.6
...
2017 09 08    00 59 34.9 +44 44 08   0.1340  1.0870   123.4    50.7    23.1
...
2017 09 16    00 52 34.6 +38 29 00   0.08066 1.0640   135.0    41.9    21.7
...
2017 09 22    00 36 00.9 +22 08 19   0.04365 1.0436   155.4    23.6    19.8
2017 09 23    00 31 06.3 +16 21 58   0.03832 1.0400   161.9    17.5    19.3
2017 09 24    00 25 05.6 +08 49 16   0.03354 1.0363   169.9     9.7    18.7
...
2017 09 30    22 40 38.0 -65 24 29   0.03160 1.0124   109.3    69.0    20.3
...
2017 10 08    15 01 15.8 -73 51 40   0.07631 0.9765    70.6   105.1    23.7
...
2017 10 23    13 48 23.2 -62 41 59   0.1718  0.8979    51.4   120.0    26.2

A. U. Tomatic                (C) Copyright 2017 MPC           M.P.E.C. 2017-S111




More information about the Iaude mailing list